This is the latest recevied weather packets stored in our database for station/object K8CWG. If no packets are shown the sender has not sent any weather packets the latest 10 day(s).
| Time | Temp. | Humidity | Pressure | Rain* | Wind** | Luminosity | Snow |
|---|---|---|---|---|---|---|---|
| 1777626002 | 6.67° C | 76% | 1012.5 hPa | 0 mm | - | - | - |
| 1777623301 | 6.11° C | 78% | 1012.6 hPa | 0 mm | - | - | - |
| 1777622407 | 6.67° C | 76% | 1012.7 hPa | 0 mm | - | - | - |
| 1777621501 | 6.67° C | 77% | 1012.7 hPa | 0 mm | - | - | - |
| 1777620601 | 6.67° C | 77% | 1012.5 hPa | 0 mm | - | - | - |
| 1777619701 | 6.67° C | 78% | 1012.7 hPa | 0 mm | - | - | - |
| 1777618802 | 6.11° C | 81% | 1012.8 hPa | 0 mm | - | - | - |
| 1777615203 | 5.56° C | 87% | 1013.5 hPa | 0 mm | - | - | - |
| 1777611605 | 6.11° C | 81% | 1013.9 hPa | 0 mm | - | - | - |
| 1777610702 | 6.67° C | 81% | 1013.8 hPa | 0 mm | - | - | - |
| 1777609802 | 6.11° C | 82% | 1013.3 hPa | 0 mm | - | - | - |
| 1777608901 | 6.11° C | 85% | 1013.9 hPa | 0 mm | - | - | - |
| 1777608012 | 6.11° C | 84% | 1014.2 hPa | 0 mm | - | - | - |
| 1777604406 | 6.67° C | 82% | 1014.6 hPa | 0 mm | - | - | - |
| 1777600803 | 7.22° C | 77% | 1014.6 hPa | 0 mm | - | - | - |
| 1777597204 | 9.44° C | 66% | 1014.2 hPa | 0 mm | - | - | - |
| 1777593606 | 12.78° C | 51% | 1013.9 hPa | 0 mm | - | - | - |
| 1777590003 | 14.44° C | 48% | 1013.9 hPa | 0 mm | - | - | - |
| 1777586403 | 16.11° C | 43% | 1014.1 hPa | 0 mm | - | - | - |
| 1777582805 | 16.11° C | 46% | 1014.4 hPa | 0 mm | - | - | - |
| 1777579203 | 15° C | 45% | 1014.6 hPa | 0 mm | - | - | - |
| 1777575610 | 15° C | 46% | 1015.1 hPa | 0 mm | - | - | - |
| 1777572003 | 13.33° C | 54% | 1015 hPa | 0 mm | - | - | - |
| 1777568403 | 13.33° C | 61% | 1015.4 hPa | 0 mm | - | - | - |
| 1777564808 | 11.67° C | 68% | 1015.8 hPa | 0 mm | - | - | - |
* Rain latest hour (hover to see other rain measurements)
** Current wind speed in m/s (hover to see current wind gust speed)